[[{"header":{"parameterUnit":"m.s-1","parameterCategory":1,"la1":30.2991,"la2":30.254,"lo1":-89.0895,"lo2":-89.0444,"dy":0.0017,"dx":0.0017,"nx":28,"ny":28,"refTime":"2025-01-18T09:00:00:Z","depth":0,"parameterNumber":2,"parameterNumberName":"U-component_of_WINDS"},"data":[0,0,0,0,0,0,0,0,0,0,0,0,0,0,0,0,0,0,0,0,0,0,0,0,0,0,0,0,0,0,0,0,0,0,0,0,0,0,0,0,0,0,0,0,0,0,0,0,0,0,0,0,0,0,0,0,0,0,1.5024,1.5025,0,1.506,1.506,1.5061,1.5068,1.5068,1.5067,1.5067,1.5102,1.5103,1.5104,0,0,0,0,0,0,0,0,0,0,0,0,0,1.4963,1.4964,1.5024,1.5025,1.5025,1.506,1.506,1.5061,1.5068,1.5068,1.5067,1.5067,1.5102,1.5103,1.5104,0,0,0,0,0,0,0,0,0,0,0,0,0,1.4993,1.4964,1.5024,1.5033,1.5034,1.506,1.506,1.5061,1.5068,1.5068,1.5067,1.5067,1.5101,1.5103,1.5105,1.5123,0,0,1.511,1.5111,0,0,0,0,0,0,0,0,1.4991,1.4995,1.5031,1.5033,1.5034,1.5059,1.5051,1.5082,1.5068,1.5055,1.5067,1.5067,1.5088,1.5091,1.5098,1.5125,1.5126,1.511,1.5111,1.5112,1.5112,0,0,0,0,0,0,0,1.4989,1.4994,1.5038,1.5032,1.5033,1.5035,1.5039,1.5057,1.5073,1.5056,1.5057,1.5061,1.5088,1.5096,1.5099,1.5127,1.511,1.5112,1.5113,1.5113,1.5172,1.5173,0,0,0,0,0,0,1.4986,1.4992,1.5037,1.5039,1.5011,1.5037,1.5041,1.5051,1.5073,1.5076,1.5061,1.5061,1.5094,1.5097,1.51,1.5124,1.5112,1.5114,1.5115,1.5172,1.5172,1.5173,0,0,0,0,0,0,1.4984,1.499,1.5036,1.5016,1.5022,1.5038,1.505,1.5052,1.506,1.5077,1.508,1.5067,1.5093,1.5098,1.5118,1.5126,1.5114,1.5116,1.5171,1.5172,1.5173,1.5172,0,0,0,0,0,0,1.4983,1.4989,1.4996,1.5016,1.5023,1.5053,1.505,1.5053,1.5063,1.5064,1.5083,1.5085,1.5094,1.5115,1.512,1.5128,1.5117,1.5171,1.5172,1.5173,1.5171,1.5173,1.5174,0,0,0,0,0,1.498,1.4994,1.4997,1.5002,1.5032,1.5053,1.5057,1.5067,1.5064,1.5071,1.5083,1.5085,1.5124,1.5117,1.5122,1.5131,1.517,1.5171,1.5172,1.5171,1.5173,1.5174,0,0,0,0,0,0,1.4974,1.4997,1.5,1.502,1.5035,1.5054,1.5064,1.5068,1.5083,1.5082,1.5093,1.5098,1.5117,1.5126,1.5118,1.5151,1.5147,1.5149,1.5144,1.5146,1.5147,1.5144,1.5119,0,0,0,0,0,1.4975,1.499,1.5009,1.5026,1.5033,1.5047,1.5057,1.5063,1.5078,1.5084,1.5097,1.5111,1.5127,1.5137,1.5153,1.5173,1.5178,1.5182,1.5183,1.5184,1.5186,1.5198,1.52,1.5177,1.5177,1.5177,0,0,1.4977,1.4992,1.5,1.5025,1.5037,1.5053,1.5052,1.5068,1.508,1.5087,1.5107,1.5116,1.5133,1.5154,1.5164,1.5162,1.5193,1.5186,1.5186,1.5187,1.52,1.5202,1.5204,1.5178,1.5177,1.5177,0,0,1.4989,1.5001,1.5017,1.5029,1.5048,1.5058,1.5061,1.5081,1.5088,1.5108,1.5114,1.5128,1.5155,1.5167,1.5177,1.5195,1.5198,1.52,1.5206,1.5218,1.522,1.5222,1.5228,1.5231,1.5202,1.5202,1.5202,0,1.4989,1.5013,1.5024,1.504,1.5051,1.5059,1.5075,1.5087,1.5109,1.5116,1.5115,1.5149,1.5161,1.5186,1.519,1.5198,1.5203,1.5197,1.5219,1.5221,1.5222,1.5229,1.5232,1.5202,1.5202,1.5202,1.5202,0,1.5012,1.5029,1.5039,1.5062,1.5074,1.509,1.5104,1.5115,1.5121,1.5131,1.5152,1.5167,1.5186,1.5193,1.5198,1.5218,1.5216,1.5217,1.5213,1.5225,1.5231,1.5234,1.5202,1.5202,1.5202,1.5202,0,0,1.5019,1.5049,1.5052,1.5063,1.5085,1.5098,1.5115,1.5135,1.5144,1.516,1.5175,1.5198,1.5199,1.521,1.5217,1.5228,1.5243,1.5227,1.5228,1.5229,1.5266,1.5265,1.5268,1.5245,1.5246,1.5246,1.5265,0,1.5033,1.5064,1.5075,1.51,1.5116,1.5125,1.514,1.5155,1.5165,1.518,1.5192,1.5208,1.5208,1.5215,1.5226,1.5238,1.525,1.5237,1.5258,1.5259,1.5253,1.5271,1.527,1.5287,1.5267,1.5268,1.5268,0,1.5053,1.5071,1.5097,1.5119,1.5126,1.5139,1.5158,1.5173,1.5191,1.5197,1.5211,1.5218,1.5236,1.5232,1.5258,1.5249,1.5259,1.5266,1.5267,1.5269,1.5264,1.5273,1.5292,1.5295,1.5272,1.5272,1.5271,0,1.5056,1.5086,1.5106,1.5115,1.514,1.5149,1.516,1.5178,1.5189,1.5206,1.5214,1.5233,1.5243,1.5258,1.527,1.5266,1.5295,1.5291,1.5301,1.5301,1.5306,1.5305,1.5326,1.5313,1.5313,1.5313,1.5313,0,1.507,1.5086,1.5107,1.5119,1.5138,1.5152,1.517,1.5181,1.5197,1.5212,1.5221,1.5235,1.525,1.5266,1.5276,1.5296,1.53,1.5306,1.5309,1.5305,1.5305,1.5311,1.531,1.5313,1.5313,1.5313,1.5313,0,1.5075,1.509,1.5113,1.5136,1.5142,1.5154,1.5174,1.5186,1.5198,1.5217,1.5222,1.524,1.5259,1.5273,1.5298,1.5305,1.5326,1.5329,1.532,1.5321,1.533,1.5329,1.5356,1.536,1.5344,1.5344,1.5344,0,1.5083,1.5096,1.5121,1.5131,1.5143,1.516,1.5172,1.5187,1.5199,1.5221,1.5231,1.5251,1.5268,1.5299,1.5314,1.5333,1.5336,1.5344,1.5339,1.5336,1.5336,1.5335,1.5336,1.5345,1.5345,1.5345,1.5345,0,1.5095,1.5103,1.512,1.514,1.5155,1.5171,1.5188,1.5196,1.5214,1.5227,1.5248,1.5261,1.5287,1.5307,1.5328,1.534,1.5345,1.5347,1.535,1.5346,1.5341,1.5344,1.5322,1.5346,1.5346,1.5346,1.5346,1.5346,1.5102,1.5114,1.5134,1.5153,1.5167,1.5183,1.5196,1.521,1.5228,1.525,1.5258,1.5279,1.5298,1.5327,1.5339,1.5356,1.5356,1.536,1.5361,1.5362,1.5362,1.5339,1.536,1.536,1.536,1.536,1.536,0,1.5115,1.5128,1.5146,1.517,1.5185,1.519,1.5209,1.5222,1.5241,1.5258,1.5275,1.5299,1.5319,1.5337,1.5357,1.5368,1.5371,1.5373,1.5371,1.5374,1.5361,1.5356,1.537,1.537,1.537,1.537,1.537,1.537,1.5123,1.5144,1.5154,1.5182,1.5196,1.5217,1.5227,1.5242,1.5256,1.5283,1.53,1.5312,1.5329,1.5352,1.5371,1.5376,1.5383,1.5384,1.5389,1.5376,1.5375,1.5374,1.5369,1.5385,1.5385,1.5401,1.5401,1.5401]},{"header":{"parameterUnit":"m.s-1","parameterCategory":1,"la1":30.2991,"la2":30.254,"lo1":-89.0895,"lo2":-89.0444,"dy":0.0017,"dx":0.0017,"nx":28,"ny":28,"refTime":"2025-01-18T09:00:00:Z","depth":0,"parameterNumber":3,"parameterNumberName":"V-component_of_WINDS"},"data":[0,0,0,0,0,0,0,0,0,0,0,0,0,0,0,0,0,0,0,0,0,0,0,0,0,0,0,0,0,0,0,0,0,0,0,0,0,0,0,0,0,0,0,0,0,0,0,0,0,0,0,0,0,0,0,0,0,0,-8.6912,-8.6914,0,-8.7102,-8.7104,-8.7107,-8.7019,-8.7014,-8.701,-8.7005,-8.7194,-8.7203,-8.7212,0,0,0,0,0,0,0,0,0,0,0,0,0,-8.6466,-8.6475,-8.6911,-8.6914,-8.6916,-8.7102,-8.7105,-8.7107,-8.702,-8.7014,-8.7008,-8.7003,-8.7191,-8.7202,-8.7213,0,0,0,0,0,0,0,0,0,0,0,0,0,-8.6658,-8.6477,-8.6911,-8.6895,-8.6896,-8.7101,-8.7105,-8.7108,-8.7021,-8.7014,-8.7007,-8.7,-8.7187,-8.7201,-8.7215,-8.7445,0,0,-8.7258,-8.7264,0,0,0,0,0,0,0,0,-8.6647,-8.6675,-8.6895,-8.6897,-8.6898,-8.703,-8.7016,-8.7221,-8.7023,-8.6973,-8.7005,-8.6997,-8.7145,-8.7162,-8.7213,-8.7454,-8.7462,-8.7259,-8.7268,-8.7274,-8.7278,0,0,0,0,0,0,0,-8.6634,-8.6666,-8.6987,-8.6899,-8.69,-8.6877,-8.6896,-8.7055,-8.7096,-8.6977,-8.6971,-8.6995,-8.7144,-8.7199,-8.7217,-8.7464,-8.7259,-8.7271,-8.728,-8.7286,-8.7903,-8.791,0,0,0,0,0,0,-8.6622,-8.6655,-8.6981,-8.6992,-8.6753,-8.6891,-8.6912,-8.6994,-8.7094,-8.7103,-8.7001,-8.6991,-8.7179,-8.72,-8.7223,-8.7499,-8.7274,-8.7287,-8.7295,-8.7895,-8.7905,-8.7913,0,0,0,0,0,0,-8.6613,-8.6652,-8.6973,-8.6823,-8.6862,-8.6906,-8.6999,-8.7002,-8.7058,-8.7113,-8.7119,-8.7051,-8.7174,-8.7203,-8.7391,-8.7504,-8.7293,-8.7306,-8.7886,-8.7898,-8.7909,-8.8053,0,0,0,0,0,0,-8.66,-8.6649,-8.6739,-8.6825,-8.687,-8.714,-8.7006,-8.7011,-8.7083,-8.7071,-8.7161,-8.7169,-8.7171,-8.737,-8.7405,-8.752,-8.7317,-8.7876,-8.7891,-8.7905,-8.8038,-8.8068,-8.8094,0,0,0,0,0,-8.6585,-8.677,-8.6744,-8.6783,-8.6983,-8.7147,-8.7172,-8.7172,-8.7093,-8.7182,-8.7217,-8.7166,-8.7486,-8.739,-8.7428,-8.755,-8.7868,-8.7887,-8.7904,-8.8026,-8.8063,-8.8093,0,0,0,0,0,0,-8.6693,-8.6781,-8.6753,-8.6972,-8.7053,-8.7132,-8.7244,-8.7211,-8.7314,-8.7298,-8.7291,-8.7312,-8.7507,-8.7546,-8.7438,-8.7777,-8.7665,-8.7691,-8.7744,-8.778,-8.7807,-8.7793,-8.7329,0,0,0,0,0,-8.6743,-8.6871,-8.694,-8.7126,-8.7169,-8.72,-8.7271,-8.7264,-8.7347,-8.738,-8.7429,-8.7509,-8.7627,-8.7706,-8.7818,-8.8043,-8.8061,-8.8146,-8.8173,-8.8196,-8.8219,-8.8341,-8.8379,-8.7971,-8.7971,-8.7971,0,0,-8.6846,-8.691,-8.6991,-8.715,-8.7212,-8.7342,-8.7229,-8.7372,-8.7468,-8.7401,-8.7582,-8.7621,-8.7709,-8.7918,-8.8011,-8.7956,-8.8335,-8.8219,-8.8236,-8.8247,-8.8363,-8.8402,-8.8436,-8.7983,-8.7981,-8.7979,0,0,-8.7102,-8.7164,-8.7326,-8.7391,-8.7487,-8.7507,-8.7546,-8.763,-8.7654,-8.7836,-8.7789,-8.7901,-8.8106,-8.8171,-8.8231,-8.8513,-8.8469,-8.8549,-8.8694,-8.8813,-8.8846,-8.8874,-8.8974,-8.901,-8.8571,-8.8572,-8.8572,0,-8.7218,-8.7415,-8.7413,-8.7561,-8.7632,-8.7579,-8.7743,-8.7805,-8.7932,-8.7981,-8.7918,-8.8174,-8.823,-8.8453,-8.8521,-8.8572,-8.8615,-8.8539,-8.8842,-8.887,-8.8896,-8.8992,-8.9029,-8.8581,-8.858,-8.8579,-8.8578,0,-8.7553,-8.769,-8.7809,-8.7936,-8.802,-8.8175,-8.8195,-8.828,-8.8266,-8.8291,-8.8477,-8.8542,-8.8667,-8.8719,-8.8705,-8.894,-8.8903,-8.8842,-8.8728,-8.8945,-8.9034,-8.907,-8.8594,-8.859,-8.8588,-8.8586,0,0,-8.7882,-8.8006,-8.805,-8.8107,-8.8209,-8.8314,-8.8466,-8.859,-8.8663,-8.8752,-8.8878,-8.9053,-8.8997,-8.9065,-8.9058,-8.9163,-8.9381,-8.9088,-8.909,-8.914,-8.9643,-8.9689,-8.9732,-8.9353,-8.936,-8.9365,-8.9636,0,-8.8145,-8.8413,-8.8416,-8.8662,-8.8789,-8.8741,-8.8872,-8.8948,-8.8976,-8.9086,-8.9115,-8.924,-8.9156,-8.9197,-8.9298,-8.9333,-8.9482,-8.9314,-8.9469,-8.9474,-8.9449,-8.9778,-8.9828,-9.0079,-8.967,-8.9676,-8.9681,0,-8.8488,-8.8591,-8.885,-8.8935,-8.8988,-8.9107,-8.9221,-8.9327,-8.9411,-8.9424,-8.9501,-8.9479,-8.9631,-8.9514,-8.9723,-8.9608,-8.9672,-8.9698,-8.9708,-8.9722,-8.9591,-8.9802,-9.016,-9.0198,-8.9736,-8.9731,-8.9727,0,-8.8702,-8.8905,-8.9087,-8.9137,-8.924,-8.9324,-8.9371,-8.9448,-8.9523,-8.9622,-8.967,-8.9784,-8.9847,-8.9935,-8.9943,-8.9857,-9.0154,-9.0037,-9.0168,-9.0168,-9.0232,-9.0228,-9.0606,-9.0274,-9.0273,-9.0272,-9.0271,0,-8.8996,-8.9156,-8.9185,-8.9297,-8.9475,-8.9476,-8.9651,-8.969,-8.9759,-8.9876,-8.984,-8.995,-8.9955,-9.0067,-9.0074,-9.0246,-9.0274,-9.0287,-9.0287,-9.0291,-9.029,-9.0333,-9.0315,-9.0282,-9.028,-9.0278,-9.0276,0,-8.9265,-8.9291,-8.9486,-8.9568,-8.9592,-8.972,-8.9789,-8.9895,-8.9919,-9.0068,-9.0102,-9.0141,-9.0271,-9.0288,-9.0439,-9.0444,-9.0651,-9.0632,-9.0623,-9.0621,-9.075,-9.0738,-9.1169,-9.1225,-9.0856,-9.0859,-9.0862,0,-8.9451,-8.9574,-8.967,-8.9747,-8.9799,-8.9923,-8.9999,-9.0004,-9.0085,-9.0191,-9.0284,-9.0411,-9.0513,-9.0723,-9.0762,-9.0878,-9.0861,-9.1005,-9.0878,-9.0878,-9.0864,-9.0857,-9.0869,-9.1029,-9.1033,-9.1036,-9.1039,0,-8.9778,-8.9785,-8.9898,-9.0017,-9.011,-9.0202,-9.0289,-9.0353,-9.0369,-9.0462,-9.0596,-9.0675,-9.0831,-9.0957,-9.1071,-9.1116,-9.1081,-9.1078,-9.1115,-9.112,-9.111,-9.1117,-9.069,-9.1068,-9.1065,-9.1063,-9.1062,-9.106,-9.0012,-9.0119,-9.0204,-9.0331,-9.0397,-9.048,-9.0583,-9.0622,-9.0735,-9.0864,-9.0859,-9.1006,-9.1087,-9.1237,-9.129,-9.1404,-9.1356,-9.1409,-9.1422,-9.1435,-9.1448,-9.1092,-9.1424,-9.1423,-9.1423,-9.1422,-9.1421,0,-9.0337,-9.039,-9.0507,-9.0631,-9.0731,-9.0691,-9.0785,-9.087,-9.1002,-9.1081,-9.1183,-9.1336,-9.1459,-9.1509,-9.1628,-9.1709,-9.1696,-9.174,-9.1734,-9.1745,-9.1484,-9.1441,-9.1749,-9.1749,-9.1749,-9.1749,-9.1749,-9.1749,-9.0518,-9.0698,-9.0715,-9.0926,-9.0976,-9.1123,-9.118,-9.1255,-9.1319,-9.1493,-9.1596,-9.1628,-9.1695,-9.1819,-9.1929,-9.194,-9.1986,-9.2038,-9.2042,-9.1797,-9.1764,-9.1732,-9.1691,-9.2048,-9.2048,-9.2294,-9.2296,-9.2298]}]]